Hourly Data Report for January 01, 2021

FORT GOOD HOPE CS
NORTHWEST TERRITORIES
Current Station Operator: ECCC - MSC

66°14'32.044" N
128°38'39.081" W
81.70 m
2201450
71491
ZGH

Download Data

Hourly Data (January 2021)
Hourly Data Report for January 1, 2021
TIME
LST
Temp Definition
°C
Dew Point Definition
°C
Rel Hum Definition
%
Precip. Amount Definition
mm

Wind Dir Definition
10's deg

Wind Spd Definition
km/h
Visibility Definition
km
Stn Press Definition
kPa
Hmdx Definition


Wind Chill Definition


Weather Definition


00:00 -24.4 -27.2 77 0.0 36 1   101.03   -25 LegendNANA
01:00 -24.5 -27.3 77 0.0 2 4   101.03   -28 LegendNANA
02:00 -24.6 -27.5 77 0.0   0   101.01     LegendNANA
03:00 -24.7 -27.5 77 0.0 11 2   101.00   -27 LegendNANA
04:00 -24.7 -27.6 77 0.0 0 1   100.98   -26 LegendNANA
05:00 -25.8 -28.7 76 0.0 35 2   100.94   -28 LegendNANA
06:00 -26.2 -29.1 76 0.0 0 1   100.88   -27 LegendNANA
07:00 -26.5 -29.5 76 0.0 9 1   100.83   -28 LegendNANA
08:00 -27.6 -30.7 75 0.0 9 3   100.75   -31 LegendNANA
09:00 -28.2 -31.3 75 0.0 7 3   100.69   -31 LegendNANA
10:00 -29.3 -32.5 74 0.0 7 3   100.63   -33 LegendNANA
11:00 -30.0 -33.3 73 0.0 9 2   100.58   -32 LegendNANA
12:00 -30.1 -33.4 73 0.0 7 4   100.53   -35 LegendNANA
13:00 -29.7 -32.9 74 0.0 7 4   100.45   -34 LegendNANA
14:00 -29.9 -33.2 73 0.0 10 5   100.39   -36 LegendNANA
15:00 -30.6 -33.9 73 0.0 8 2   100.30   -33 LegendNANA
16:00 -32.3 -35.7 72 0.0 11 4   100.22   -37 LegendNANA
17:00 -30.2 -33.4 73 0.0 8 8   100.13   -38 LegendNANA
18:00 -30.7 -34.0 73 0.0 8 7   100.01   -38 LegendNANA
19:00 -31.1 -34.4 73 0.0 7 6   99.94   -38 LegendNANA
20:00 -31.5 -34.9 72 0.0 7 5   99.83   -37 LegendNANA
21:00 -31.4 -34.8 72 0.0 5 3   99.71   -35 LegendNANA
22:00 -30.3 -33.6 73 0.0 8 6   99.59   -37 LegendNANA
23:00 -29.1 -32.3 74 0.0 7 6   99.50   -35 LegendNANA

Notes on Data Quality.

Legend

  • E = Estimated
  • M = Missing
  • NA = Not Available*
  • [empty] = Indicates an unobserved value
Date modified: